Location: Haliburton Scout Reserve
(45.0900°N, 78.3200°W)
Time: 21:29:36
(UTC-04:00)

IDEFIX/ARIANE 42P - Visible Passes

Search period start: 28 March 2017 00:00
Search period end: 07 April 2017 00:00
Orbit: 784 x 804 km, 98.2° (Epoch: 27 March)

Date Brightness Start Highest point End Pass type
(mag) Time Alt. Az. Time Alt. Az. Time Alt. Az.
30 Mar 5.4 06:12:40 10° NE 06:16:32 21° E 06:20:21 10° SE visible
31 Mar 6.0 05:46:19 10° ENE 05:47:50 11° E 05:49:20 10° ESE visible
03 Apr 5.6 05:59:35 10° NE 06:02:41 16° E 06:05:47 10° SE visible
